Regional Weather Roundup
Issued by NWS Upton, NY

Current Version | Previous Version | Text Only | Print | Product List | Glossary On
Versions: 1 2 3 4 5 6 7 8 9 10 11 12 13 14 15 16 17 18 19 20 21 22 23 24 25 26 27 28 29 30 31 32 33 34 35 36 37 38 39 40 41 42 43 44 45 46 47 48 49 50
096 ASUS41 KOKX 210605 RWROKX Regional Weather Roundup National Weather Service New York NY 200 AM EDT SAT APR 21 2018 Note: "FAIR" indicates few or no clouds below 12,000 feet with no significant weather and/or obstructions to visibility. NYZ071-072-176-178-NJZ106-104-210700- New York City Metro Area CITY SKY/WX TMP DP RH WIND PRES REMARKS Central Park FAIR 40 24 53 VRB3 30.39F Bronx Bot Gard N/A 39 25 56 NW2 30.37S Bronx Lehman C N/A 39 25 56 N6 N/A WCI 35 LaGuardia Arpt FAIR 42 25 50 NW10 30.37S Queens College N/A 41 27 56 NW8 N/A Kennedy Intl FAIR 39 25 57 NW9 30.38F WCI 33 Breezy Point N/A 39 N/A N/A NW8 N/A WCI 34 Brooklyn Coll N/A 41 25 52 NW8 N/A Staten Island N/A 41 27 56 NW3 N/A Newark/Liberty FAIR 40 24 53 N6 30.38S Teterboro FAIR 39 24 55 N12 30.37S WCI 32 $$ NYZ177-179-078>081-210700- Long Island New York CITY SKY/WX TMP DP RH WIND PRES REMARKS Jones Beach N/A 39 N/A N/A NW10 N/A WCI 32 Wantagh N/A 39 27 60 NW3 N/A Hempstead N/A 39 28 65 NW3 30.38F Matinecock Pt N/A 41 N/A N/A W9 N/A Farmingdale FAIR 38 25 59 NW6 30.36F WCI 33 MacArthur/ISP FAIR 38 27 64 NW10 30.34F WCI 31 Stony Brook N/A 39 28 65 NW6 N/A WCI 35 Shirley FAIR 38 27 64 NW9 30.34F WCI 31 Mt Sinai Harb N/A N/A N/A N/A NW6 N/A Westhampton FAIR 38 26 62 NW8 30.35S WCI 32 East Hampton FAIR 38 26 62 NW6 30.32S WCI 33 Southold N/A 39 30 70 NW10 N/A WCI 32 Montauk N/A 42 30 62 NW10 30.31S $$ NYZ052-065-067-210700- Hudson Valley CITY SKY/WX TMP DP RH WIND PRES REMARKS White Plains FAIR 36 23 59 NW6 30.34F WCI 31 Larchmont Harb N/A 37 N/A N/A W7 N/A WCI 32 Croton On Huds N/A 36 N/A N/A NW1 N/A Somers N/A 32 25 74 S2 N/A Brewster N/A 30 25 80 NW1 N/A Newburgh CLEAR 32 27 80 W7 30.35F WCI 26 Montgomery FAIR 29 23 78 W3 30.34F Otisville N/A 34 27 75 NW6 N/A WCI 29 Warwick N/A 32 28 86 SE2 N/A Suffern N/A 37 25 60 NW3 N/A Poughkeepsie FAIR 29 24 82 CALM 30.35F Albany MOCLDY 38 24 57 NW14 30.33F WCI 30 $$ NJZ001-105-106-008-010-013-015-019>022-104-210700- New Jersey CITY SKY/WX TMP DP RH WIND PRES REMARKS Newark/Liberty FAIR 40 24 53 N6 30.38S Teterboro FAIR 39 24 55 N12 30.37S WCI 32 Caldwell FAIR 39 24 55 VRB5 30.38S Somerville FAIR 31 26 82 NW3 30.37F Linden FAIR 38 24 55 CALM 30.39F Perth Amboy N/A 39 N/A N/A NW6 N/A WCI 35 Sussex FAIR 27 23 85 CALM 30.37S Andover N/A 30 25 81 CALM 30.37F Trenton FAIR 37 24 59 CALM 30.39F Millville FAIR 39 24 55 N5 30.40S Atlantic City FAIR 37 25 61 N8 30.39F WCI 31 Wrightstown FAIR 36 24 60 W3 30.37S Toms River FAIR 34 24 67 NW3 30.39F Belmar FAIR 36 24 62 NW3 30.38F $$ PAZ047>061-062-071-210700- Eastern Pennsylvania CITY SKY/WX TMP DP RH WIND PRES REMARKS Philadelphia FAIR 39 24 55 N5 30.42S Allentown FAIR 31 23 72 SW5 30.40S WCI 26 Scranton FAIR 30 24 78 CALM 30.39R $$ CTZ002-004>006-009-010-012-RIZ004-006-007-MAZ004-011-015-210700- Southern New England In CT CITY SKY/WX TMP DP RH WIND PRES REMARKS Bradley Intl FAIR 35 26 69 NW8 30.31F WCI 29 Hartford FAIR 35 25 66 CALM 30.33S Danbury FAIR 31 24 75 CALM 30.35F Wtrbury/Oxford FAIR 34 25 69 NW6 30.32S WCI 29 Norwalk Harbor N/A 37 N/A N/A W8 N/A WCI 31 Bridgeport FAIR 38 25 59 W7 30.34F WCI 33 Meriden FAIR 37 26 64 NW5 30.33S WCI 33 New Haven FAIR 39 25 57 NW5 30.34S Chester FAIR 37 25 60 NW8 30.31R WCI 31 Groton FAIR 38 26 62 NW8 30.30S WCI 32 Willimantic FAIR 39 25 57 NW6G18 30.30S WCI 35 In RI CITY SKY/WX TMP DP RH WIND PRES REMARKS Providence FAIR 39 27 62 W6 30.28S WCI 35 Block Island FAIR 40 29 64 NW8 30.29F WCI 34 Westerly FAIR 39 27 62 W3 30.30S In MA CITY SKY/WX TMP DP RH WIND PRES REMARKS Boston FAIR 40 26 57 W12 30.25S WCI 33 Worcester FAIR 35 24 64 W15 30.24F WCI 25 Westfield FAIR 36 26 67 CALM 30.30F Provincetown FAIR 41 32 70 NW16G22 30.23S Nantucket FAIR 41 31 67 NW16 30.24S $$ ANZ330-335-338-340-345-350-353-355-210700- Coastal Marine Observations STATION/POSITION TIME SKY/WX TEMP WIND PRES VSBY WAVE AIR SEA DIR/SP/G HT/PER (UTC) (F) (DEG/KT/KT) (MB) (MI) (FT/S) NY Harb Entrance 0550 42 44 330/ 14/ 17 1028.2 2/ 3 20 S Fire Island 0550 42 42 340/ 16/ 19 1027.5 3/ 4 23 SSW Montauk P 0550 42 42 310/ 14/ 17 1026.2 3/ 4 15 E Barnegat Li 0530 44 N/A 5/ 5 Hudson Canyon 0550 43 44 360/ 17/ 21 1026.6 4/ 5 Kings Point 0530 41 44 10/ 10/ 11 1029.4 Execution Rocks NOT AVBL Western LI Sound NOT AVBL Central LI Sound 0545 41 320/ 12/ 16 N/A 2 Robbins Reef 0548 41 330/ 9/ 11 1029.2 $$ >>>>>>>>>>>>>>>>>>>>>>>>>>>> KEY <<<<<<<<<<<<<<<<<<<<<<<<<<< > < > SKY/WX - Sky Condition/Present Weather < > TMP - Temperature in Fahrenheit < > DP - Dew Point in Fahrenheit < > RH - Relative Humidity in Percent < > WIND - Direction (from) and Speed in MPH < > PRES - Mean Sea Level Pressure (inches of Hg) < > WCI - Wind Chill Index < > VSB - Visibility in Miles < > HX - Heat Index < > TC - Temperature in Celsius < > VRB - Varibale Wind Direction < > < >>>>>>>>>>>>>>>>>>>>>>>>>>>> KEY <<<<<<<<<<<<<<<<<<<<<<<<<<<

USA.gov is the U.S. government's official web portal to all federal, state and local government web resources and services.